Gwinn, MI

10:13 PM EST on December 03, 2016 (GMT -0500)
Sawyer International

Weather History for KSAW - February, 2013

Change the Weather History Date:

Wednesday, February 20, 2013

  Actual Average (KESC) Record (KESC)
Temperature  
Mean Temperature 12 °F -  
Max Temperature 14 °F 29 °F 44 °F (2003)
Min Temperature 9 °F 9 °F -25 °F (2015)
Degree Days  
Heating Degree Days 54    
Moisture  
Dew Point 7 °F    
Average Humidity 82    
Maximum Humidity 86    
Minimum Humidity 79    
Precipitation  
Precipitation 0.00 in - - ()
Sea Level Pressure  
Sea Level Pressure 30.13 in    
Wind  
Wind Speed 20 mph (NNW)    
Max Wind Speed 25 mph    
Max Gust Speed 37 mph    
Visibility 3 miles    
Events Snow    
Averages and records for this station are not official NWS values.
T = Trace of Precipitation, MM = Missing Value Source: NWS Daily Summary

Daily Weather History Graph

Daily Weather History Graph

Search for Another Location

Airport or City:

Trip Planner

Search our weather history database for the weather conditions in past years. The results will help you decide how hot, cold, wet, or windy it might be!

Date:

Astronomy

Feb. 20, 2013 Rise Set
Actual Time 7:44 AM EST 6:23 PM EST
Civil Twilight 7:13 AM EST 6:53 PM EST
Nautical Twilight 6:38 AM EST 7:28 PM EST
Astronomical Twilight 6:03 AM EST 8:03 PM EST
Moon 1:33 PM EST (2/20) 4:14 AM EST (2/20)
Length of Visible Light 11h 40m
Length of Day
10h 38m
Waxing Gibbous, 76% of the Moon is Illuminated
Feb 20
Waxing Gibbous
Feb 25
Full
Mar 4
Last Quarter
Mar 11
New
Mar 19
First Quarter

Hourly Weather History & Observations

Time (EST) Temp. Windchill Dew Point Humidity Pressure Visibility Wind Dir Wind Speed Gust Speed Precip Events Conditions
12:17 AM 10.4 °F -9.1 °F 6.1 °F 83% 29.91 in - NNW 21.9 mph 32.2 mph N/A   Unknown
12:36 AM 10.4 °F -9.1 °F 6.1 °F 83% 29.92 in - NNW 21.9 mph 32.2 mph N/A   Unknown
12:57 AM 10.4 °F -9.5 °F 6.1 °F 83% 29.93 in - NNW 23.0 mph 35.7 mph N/A   Unknown
1:17 AM 10.4 °F -8.2 °F 5.9 °F 82% 29.94 in - NNW 19.6 mph 36.8 mph N/A   Unknown
1:36 AM 10.2 °F -8.4 °F 6.1 °F 83% 29.95 in - NNW 19.6 mph 28.8 mph N/A   Overcast
1:57 AM 10.2 °F -10.1 °F 5.7 °F 82% 29.96 in - NNW 24.2 mph 34.5 mph N/A   Unknown
2:16 AM 10.2 °F -10.1 °F 5.5 °F 81% 29.96 in - NNW 24.2 mph 32.2 mph N/A   Overcast
2:37 AM 10.0 °F -8.1 °F 5.7 °F 83% 29.98 in - NNW 18.4 mph 29.9 mph N/A   Unknown
2:57 AM 9.9 °F -8.9 °F 5.7 °F 83% 29.99 in - NNW 19.6 mph 29.9 mph N/A   Unknown
3:16 AM 10.0 °F -9.1 °F 5.7 °F 83% 29.99 in - North 20.7 mph 27.6 mph N/A   Unknown
3:37 AM 9.7 °F -8.1 °F 5.7 °F 84% 30.00 in - NNW 17.3 mph 26.5 mph N/A   Overcast
3:57 AM 9.5 °F -9.3 °F 5.4 °F 83% 30.00 in - NNW 19.6 mph 32.2 mph N/A   Unknown
4:16 AM 9.5 °F -10.3 °F 5.5 °F 84% 30.01 in - North 21.9 mph 28.8 mph N/A   Unknown
4:37 AM 9.9 °F -8.9 °F 5.7 °F 83% 30.03 in - NNW 19.6 mph 29.9 mph N/A   Unknown
4:56 AM 9.9 °F -8.4 °F 5.7 °F 83% 30.03 in - NNW 18.4 mph 25.3 mph N/A   Unknown
5:17 AM 10.4 °F -8.2 °F 5.0 °F 79% 30.04 in - NNW 19.6 mph 34.5 mph N/A   Overcast
5:37 AM 10.0 °F -10.4 °F 5.5 °F 82% 30.05 in - NNW 24.2 mph 34.5 mph N/A   Overcast
5:56 AM 9.9 °F -9.8 °F 5.7 °F 83% 30.06 in - NNW 21.9 mph 32.2 mph N/A   Overcast
6:50 AM 10.4 °F -9.5 °F 5.0 °F 79% 30.09 in 1.5 mi NNW 23.0 mph 34.5 mph N/A Snow Light Snow
7:50 AM 10.4 °F -10.3 °F 5.0 °F 79% 30.12 in 0.8 mi NNW 25.3 mph 34.5 mph N/A Snow Light Snow
8:20 AM 10.4 °F -9.5 °F 6.8 °F 85% 30.13 in 0.5 mi NNW 23.0 mph 33.4 mph N/A Snow Snow
8:50 AM 10.4 °F -9.1 °F 6.8 °F 85% 30.14 in 0.5 mi North 21.9 mph 29.9 mph N/A Snow Light Snow
10:50 AM 12.2 °F -5.8 °F 6.8 °F 79% 30.17 in 0.5 mi North 19.6 mph 35.7 mph N/A Snow Light Snow
11:55 AM 12.2 °F -5.3 °F 8.6 °F 85% 30.19 in 0.5 mi NNW 18.4 mph 27.6 mph N/A Snow Light Snow
12:50 PM 14.0 °F -2.5 °F 10.4 °F 86% 30.19 in 0.8 mi NNW 17.3 mph 27.6 mph N/A Snow Light Snow
1:50 PM 14.0 °F -3.9 °F 8.6 °F 79% 30.21 in 0.8 mi NNW 20.7 mph 29.9 mph N/A Snow Light Snow
2:50 PM 14.0 °F -3.4 °F 8.6 °F 79% 30.22 in 1.2 mi NNW 19.6 mph 28.8 mph N/A Snow Light Snow
3:45 PM 14.0 °F -3.4 °F 8.6 °F 79% 30.22 in 1.2 mi North 19.6 mph 26.5 mph N/A Snow Light Snow
4:50 PM 14.0 °F -3.9 °F 8.6 °F 79% 30.25 in 2.5 mi NNW 20.7 mph 25.3 mph N/A Snow Light Snow
5:50 PM 14.0 °F 0.5 °F 8.6 °F 79% 30.29 in 4.0 mi NNW 11.5 mph 18.4 mph N/A Snow Light Snow
6:50 PM 12.2 °F -2.5 °F 6.8 °F 79% 30.32 in 7.0 mi NW 12.7 mph - N/A Snow Light Snow
7:50 PM 12.2 °F -3.1 °F 6.8 °F 79% 30.33 in 5.0 mi NNW 13.8 mph 19.6 mph N/A Snow Light Snow
8:50 PM 12.2 °F -3.7 °F 8.6 °F 85% 30.33 in 5.0 mi NNW 15.0 mph 20.7 mph N/A Snow Light Snow
9:45 PM 12.2 °F -3.1 °F 8.6 °F 85% 30.32 in 3.0 mi NNW 13.8 mph - N/A Snow Light Snow
10:17 PM 12.9 °F -0.9 °F 8.6 °F 83% 30.33 in 4.0 mi NNW 11.5 mph 17.3 mph N/A Snow Light Snow
10:37 PM 12.9 °F -0.9 °F 8.6 °F 83% 30.33 in 5.0 mi NNW 11.5 mph 19.6 mph N/A Snow Light Snow
10:56 PM 13.1 °F -1.4 °F 9.1 °F 84% 30.33 in 5.0 mi NNW 12.7 mph 17.3 mph N/A Snow Light Snow
11:17 PM 13.5 °F -1.5 °F 9.5 °F 84% 30.33 in 4.0 mi NNW 13.8 mph 18.4 mph N/A Snow Light Snow
11:37 PM 13.5 °F -1.5 °F 9.5 °F 84% 30.33 in 4.0 mi North 13.8 mph - N/A Snow Light Snow
11:56 PM 13.5 °F -2.1 °F 9.5 °F 84% 30.32 in 4.0 mi North 15.0 mph - N/A Snow Light Snow